CW8217 Weather Reports


Display with metric or nautical units.
time (UTC)temp
F
wind
direction
speed
MPH
gust
MPH
rain 1hr
in
rain 24hr
in
rain mn
in
humidity
%
barometer
mb
20260508135205 50 270 5.0 5.0 0.00 0.00 0.00 61 1017.6
20260508134704 49 270 5.0 5.0 0.00 0.00 0.00 61 1017.6
20260508134205 49 270 5.0 5.0 0.00 0.00 0.00 64 1017.6
20260508132704 45 270 5.0 5.0 0.00 0.00 0.00 68 1017.2
20260508132205 44 270 5.0 5.0 0.00 0.00 0.00 69 1017.1
20260508131705 43 270 5.0 5.0 0.00 0.00 0.00 72 1017.1
20260508130705 41 270 5.0 5.0 0.00 0.00 0.00 77 1017.0
20260508130205 40 269 4.0 5.0 0.00 0.00 0.00 82 1017.0
20260508125704 39 250 3.0 3.0 0.00 0.00 0.00 83 1017.1
20260508125205 38 250 3.0 3.0 0.00 0.00 0.00 89 1017.2
20260508124704 37 250 3.0 3.0 0.00 0.00 0.00 90 1017.1
20260508124204 36 250 3.0 3.0 0.00 0.00 0.00 92 1017.0
20260508123704 36 250 3.0 3.0 0.00 0.00 0.00 92 1017.0
20260508122705 35 250 3.0 3.0 0.00 0.00 0.00 93 1016.9
20260508122204 35 250 3.0 3.0 0.00 0.00 0.00 93 1016.9
20260508121705 34 250 3.0 3.0 0.00 0.00 0.00 93 1016.9
20260508121205 34 250 3.0 3.0 0.00 0.00 0.00 93 1016.8
20260508120705 34 250 3.0 3.0 0.00 0.00 0.00 93 1016.7
20260508120204 34 252 6.0 8.0 0.00 0.00 0.00 93 1016.7
20260508115705 34 270 8.0 8.0 0.00 0.00 0.00 93 1016.6
20260508115205 34 270 8.0 8.0 0.00 0.00 0.00 93 1016.5
20260508114205 33 270 8.0 8.0 0.00 0.00 0.00 93 1016.4
20260508113705 33 270 8.0 8.0 0.00 0.00 0.00 93 1016.4
20260508113205 33 270 8.0 8.0 0.00 0.00 0.00 93 1016.3
20260508112705 33 270 8.0 8.0 0.00 0.00 0.00 93 1016.2
20260508111705 33 270 8.0 8.0 0.00 0.00 0.00 93 1016.0
20260508111205 33 270 8.0 8.0 0.00 0.00 0.00 93 1016.0
20260508110704 33 270 8.0 8.0 0.00 0.00 0.00 93 1015.8
20260508110204 33 270 8.0 8.0 0.00 0.00 0.00 93 1015.7
20260508105705 33 270 8.0 8.0 0.00 0.00 0.00 93 1015.7
20260508105205 33 270 8.0 8.0 0.00 0.00 0.00 93 1015.7
20260508104705 33 270 8.0 8.0 0.00 0.00 0.00 93 1015.6
20260508104205 33 270 8.0 8.0 0.00 0.00 0.00 93 1015.5
20260508103704 33 270 8.0 8.0 0.00 0.00 0.00 93 1015.3
20260508102705 33 270 8.0 8.0 0.00 0.00 0.00 93 1015.2
20260508101205 33 270 8.0 8.0 0.00 0.00 0.00 92 1015.0
20260508100705 33 270 7.0 8.0 0.00 0.00 0.00 92 1015.0
20260508100205 34 270 8.0 8.0 0.00 0.00 0.00 92 1015.1
20260508095705 34 270 8.0 8.0 0.00 0.00 0.00 92 1015.3
20260508095205 34 270 8.0 8.0 0.00 0.00 0.00 92 1015.4
20260508094705 34 270 8.0 8.0 0.00 0.00 0.00 92 1015.4
20260508094204 34 270 8.0 8.0 0.00 0.00 0.00 92 1015.4
20260508093704 34 270 8.0 8.0 0.00 0.00 0.00 92 1015.4
20260508093205 34 270 8.0 8.0 0.00 0.00 0.00 92 1015.4
20260508092704 34 270 8.0 8.0 0.00 0.00 0.00 92 1015.5
20260508091705 34 270 8.0 8.0 0.00 0.01 0.00 92 1015.6
20260508091205 34 270 8.0 8.0 0.00 0.01 0.00 92 1015.6
20260508090705 35 270 8.0 8.0 0.00 0.01 0.00 92 1015.4
20260508090205 35 270 8.0 8.0 0.00 0.01 0.00 92 1015.3
20260508085205 35 270 8.0 8.0 0.00 0.01 0.00 92 1015.5
20260508084704 35 270 8.0 8.0 0.00 0.01 0.00 92 1015.4
20260508084204 35 270 8.0 8.0 0.00 0.01 0.00 92 1015.4
20260508083205 35 270 8.0 8.0 0.00 0.01 0.00 92 1015.4
20260508082705 36 270 8.0 8.0 0.00 0.01 0.00 92 1015.3
20260508082205 36 270 8.0 8.0 0.00 0.02 0.00 92 1015.2
20260508081705 36 270 8.0 8.0 0.00 0.02 0.00 92 1015.3
20260508081205 36 270 8.0 8.0 0.00 0.02 0.00 92 1015.3
20260508080705 36 270 8.0 8.0 0.00 0.02 0.00 92 1015.3
20260508080204 36 270 8.0 8.0 0.00 0.02 0.00 92 1015.3
20260508075705 36 270 8.0 8.0 0.00 0.02 0.00 92 1015.6
20260508074704 37 270 8.0 8.0 0.00 0.02 0.00 92 1015.6
20260508074205 37 270 8.0 8.0 0.00 0.02 0.00 91 1015.5
20260508073205 37 270 8.0 8.0 0.00 0.02 0.00 91 1015.4
20260508072204 38 270 8.0 8.0 0.00 0.02 0.00 91 1015.6
20260508071704 38 270 8.0 8.0 0.00 0.02 0.00 91 1015.7
20260508071205 38 270 8.0 8.0 0.00 0.02 0.00 91 1015.6
20260508065705 39 270 8.0 8.0 0.00 0.02 0.00 91 1015.6
20260508065204 39 270 8.0 8.0 0.00 0.02 0.00 90 1015.6
20260508064704 39 270 8.0 8.0 0.00 0.02 0.00 91 1015.5
20260508064205 39 270 8.0 8.0 0.00 0.02 0.00 91 1015.3
20260508063205 39 270 8.0 8.0 0.00 0.02 0.00 90 1015.6
20260508062705 40 270 8.0 8.0 0.00 0.02 0.00 90 1015.5
20260508062206 40 270 8.0 8.0 0.00 0.02 0.00 90 1015.6
20260508061704 40 270 8.0 8.0 0.00 0.02 0.00 90 1015.4
20260508061204 40 270 8.0 8.0 0.00 0.02 0.00 90 1015.4
20260508060704 41 270 8.0 8.0 0.00 0.02 0.00 89 1015.4
20260508055705 41 270 8.0 8.0 0.00 0.02 0.00 89 1015.6
20260508055204 41 270 8.0 8.0 0.00 0.02 0.00 89 1015.5
20260508054705 42 270 8.0 8.0 0.00 0.02 0.00 89 1015.5
20260508054205 42 270 8.0 8.0 0.00 0.02 0.00 89 1015.5
20260508053205 42 270 8.0 8.0 0.00 0.02 0.00 88 1015.5
20260508052705 43 270 8.0 8.0 0.00 0.02 0.00 88 1015.4
20260508052204 43 270 8.0 8.0 0.00 0.02 0.00 88 1015.4
20260508051705 43 270 8.0 8.0 0.00 0.03 0.00 88 1015.4
20260508051205 44 270 8.0 8.0 0.00 0.03 0.00 88 1015.4
20260508050705 44 270 8.0 8.0 0.00 0.03 0.00 88 1015.3
20260508050204 44 270 8.0 8.0 0.00 0.03 0.00 88 1015.1
20260508045705 44 270 8.0 8.0 0.00 0.03 0.00 88 1015.3
20260508045204 45 270 8.0 8.0 0.00 0.03 0.00 88 1015.1
20260508044704 45 270 8.0 8.0 0.00 0.03 0.00 88 1015.1
20260508044204 45 270 8.0 8.0 0.00 0.03 0.00 87 1015.1
20260508043705 45 270 8.0 8.0 0.00 0.03 0.00 87 1015.1
20260508043205 45 270 8.0 8.0 0.00 0.03 0.00 88 1015.2
20260508042204 45 270 8.0 8.0 0.00 0.03 0.00 87 1015.0
20260508041204 46 270 8.0 8.0 0.00 0.03 0.00 86 1014.9
20260508040707 46 270 8.0 8.0 0.00 0.03 0.00 87 1014.8
20260508040205 46 270 8.0 8.0 0.00 0.03 0.00 87 1014.7
20260508035704 47 270 8.0 8.0 0.00 0.03 0.03 87 1014.8
20260508035204 47 270 8.0 8.0 0.00 0.03 0.03 86 1014.8
20260508034705 47 270 8.0 8.0 0.00 0.03 0.03 87 1014.8
20260508034204 47 270 8.0 8.0 0.00 0.03 0.03 87 1014.8
20260508033704 47 270 8.0 8.0 0.00 0.03 0.03 86 1014.8
20260508033204 47 270 8.0 8.0 0.00 0.03 0.03 88 1014.8
20260508031704 47 270 8.0 8.0 0.00 0.03 0.03 88 1014.6
20260508031204 47 270 8.0 8.0 0.00 0.04 0.03 89 1014.4
20260508030704 47 270 8.0 8.0 0.00 0.04 0.03 88 1014.3
20260508030204 47 270 8.0 8.0 0.00 0.04 0.03 88 1014.2
20260508025704 47 270 8.0 8.0 0.00 0.04 0.03 88 1014.3
20260508025205 47 270 8.0 8.0 0.00 0.04 0.03 88 1014.3
20260508024705 47 270 8.0 8.0 0.00 0.05 0.03 88 1014.4
20260508024204 47 270 8.0 8.0 0.00 0.05 0.03 89 1014.3
20260508023705 47 270 8.0 8.0 0.00 0.05 0.03 89 1014.4
20260508022705 47 270 8.0 8.0 0.00 0.06 0.03 90 1014.2
20260508022205 46 270 8.0 8.0 0.00 0.06 0.03 91 1014.2
20260508021705 46 270 8.0 8.0 0.00 0.06 0.03 90 1014.1
20260508021204 46 270 8.0 8.0 0.00 0.06 0.03 91 1014.0
20260508020705 46 270 8.0 8.0 0.00 0.06 0.03 91 1014.0
20260508020204 46 270 8.0 8.0 0.00 0.07 0.03 90 1014.0
20260508015705 46 270 8.0 8.0 0.00 0.07 0.03 90 1013.9
20260508015205 46 270 8.0 8.0 0.00 0.07 0.03 90 1013.9
20260508014705 45 270 8.0 8.0 0.00 0.07 0.03 90 1013.7
20260508014204 45 270 8.0 8.0 0.00 0.07 0.03 90 1013.7
20260508013204 45 270 8.0 8.0 0.00 0.08 0.03 89 1013.6
20260508012705 45 270 8.0 8.0 0.00 0.08 0.03 89 1013.5
20260508012204 45 270 8.0 8.0 0.00 0.08 0.03 88 1013.4
20260508011704 45 270 8.0 8.0 0.00 0.08 0.03 88 1013.3
20260508011204 45 270 8.0 8.0 0.00 0.09 0.03 87 1013.2
20260508010705 46 270 8.0 8.0 0.00 0.09 0.03 87 1013.1
20260508010204 46 270 8.0 8.0 0.00 0.09 0.03 86 1012.9
20260508005704 46 270 8.0 8.0 0.00 0.09 0.03 85 1012.9
20260508005205 46 270 8.0 8.0 0.00 0.09 0.03 85 1013.0
20260508004705 46 270 8.0 8.0 0.00 0.09 0.03 85 1013.0
20260508004205 47 270 8.0 8.0 0.00 0.09 0.03 84 1012.9
20260508003704 47 270 8.0 8.0 0.00 0.09 0.03 84 1012.9
20260508003205 47 270 8.0 8.0 0.00 0.09 0.03 83 1013.0
20260508002705 47 270 8.0 8.0 0.00 0.09 0.03 83 1012.9
20260508002205 48 270 8.0 8.0 0.00 0.09 0.03 82 1012.8
20260508001704 48 270 8.0 8.0 0.00 0.09 0.03 82 1012.8
20260508000704 48 270 8.0 8.0 0.00 0.09 0.03 81 1012.9
20260507235704 48 270 8.0 8.0 0.00 0.09 0.03 80 1013.0
20260507235204 49 270 8.0 8.0 0.00 0.09 0.03 80 1013.0
20260507234704 49 270 8.0 8.0 0.00 0.09 0.03 79 1013.1
20260507233705 49 270 8.0 8.0 0.00 0.09 0.03 78 1013.0
20260507232704 50 270 8.0 8.0 0.00 0.09 0.03 77 1012.9
20260507232205 50 270 8.0 8.0 0.00 0.09 0.03 76 1012.9
20260507231704 50 270 8.0 8.0 0.00 0.09 0.03 77 1012.9
20260507231204 50 270 8.0 8.0 0.00 0.09 0.03 77 1012.9
20260507230705 50 270 8.0 8.0 0.00 0.09 0.03 76 1012.9
20260507230204 51 270 10.0 23.0 0.00 0.09 0.03 76 1013.0
20260507225705 51 270 13.0 23.0 0.00 0.09 0.03 76 1012.9
20260507225205 51 270 13.0 23.0 0.00 0.09 0.03 78 1012.8
20260507224705 51 270 13.0 23.0 0.00 0.09 0.03 78 1012.7
20260507224204 51 270 13.0 23.0 0.00 0.09 0.03 77 1012.7
20260507223704 51 270 13.0 23.0 0.00 0.09 0.03 78 1012.4
20260507223204 51 270 13.0 23.0 0.00 0.09 0.03 76 1012.3
20260507222205 51 270 13.0 23.0 0.00 0.09 0.03 74 1012.2
20260507221704 51 270 13.0 23.0 0.00 0.09 0.03 75 1012.1
20260507221205 51 270 13.0 23.0 0.00 0.09 0.03 77 1012.1
20260507220704 51 270 13.0 23.0 0.00 0.09 0.03 77 1012.0
20260507220204 51 270 9.0 23.0 0.00 0.09 0.03 76 1011.9
20260507215704 51 290 6.0 6.0 0.00 0.09 0.03 77 1012.2
20260507215204 51 290 6.0 6.0 0.00 0.09 0.03 78 1012.0
20260507213704 51 290 6.0 6.0 0.00 0.09 0.03 78 1011.9
20260507213204 50 290 6.0 6.0 0.00 0.09 0.03 80 1011.7
20260507212204 49 290 6.0 6.0 0.00 0.09 0.03 82 1011.6
20260507211704 49 290 6.0 6.0 0.00 0.09 0.03 83 1011.7
20260507211204 48 290 6.0 6.0 0.00 0.09 0.03 83 1011.7
20260507210705 48 290 6.0 6.0 0.00 0.09 0.03 83 1011.6
20260507210204 48 289 6.0 7.0 0.00 0.09 0.03 83 1011.7
20260507205704 48 280 7.0 7.0 0.00 0.09 0.03 83 1011.9
20260507205204 49 280 7.0 7.0 0.00 0.09 0.03 83 1012.0
20260507203705 50 280 7.0 7.0 0.00 0.09 0.03 84 1011.8
20260507202705 50 280 7.0 7.0 0.00 0.09 0.03 85 1011.5
20260507202204 50 280 7.0 7.0 0.00 0.09 0.03 84 1011.4
20260507201705 50 280 7.0 7.0 0.00 0.09 0.03 85 1011.3
20260507201205 50 280 7.0 7.0 0.00 0.09 0.03 84 1011.3
20260507200705 50 280 7.0 7.0 0.00 0.09 0.03 84 1011.2
20260507200204 50 281 6.0 7.0 0.00 0.09 0.03 85 1011.4
20260507195704 51 300 6.0 6.0 0.00 0.09 0.03 85 1011.4
20260507195204 51 300 6.0 6.0 0.00 0.09 0.03 84 1011.3
20260507194705 51 300 6.0 6.0 0.00 0.09 0.03 84 1011.3
20260507194204 51 300 6.0 6.0 0.00 0.09 0.03 83 1011.2
20260507193705 51 300 6.0 6.0 0.00 0.09 0.03 83 1011.3
20260507192704 51 300 6.0 6.0 0.00 0.09 0.03 84 1011.3
20260507192205 51 300 6.0 6.0 0.00 0.09 0.03 85 1011.4
20260507191704 51 300 6.0 6.0 0.00 0.09 0.03 85 1011.4
20260507191204 51 300 6.0 6.0 0.00 0.09 0.03 84 1011.3
20260507190204 52 298 7.0 9.0 0.00 0.09 0.03 84 1011.5
20260507185705 52 280 9.0 9.0 0.00 0.09 0.03 84 1011.7
20260507185205 53 280 9.0 9.0 0.00 0.09 0.03 83 1011.8
20260507184705 53 280 9.0 9.0 0.00 0.09 0.03 82 1011.6
20260507184204 54 280 9.0 9.0 0.00 0.09 0.03 82 1011.7
20260507182705 55 280 9.0 9.0 0.00 0.09 0.03 80 1011.5
20260507182204 55 280 9.0 9.0 0.00 0.09 0.03 79 1011.5
20260507181207 56 280 9.0 9.0 0.00 0.09 0.03 79 1011.6
20260507180705 57 280 9.0 9.0 0.00 0.09 0.03 76 1011.5
20260507180204 58 282 9.0 9.0 0.00 0.09 0.03 76 1011.6
20260507175204 58 330 8.0 8.0 0.00 0.09 0.03 78 1011.5
20260507174704 58 330 8.0 8.0 0.00 0.09 0.03 80 1011.5
20260507173705 58 330 8.0 8.0 0.00 0.09 0.03 77 1011.4
20260507173205 58 330 8.0 8.0 0.00 0.09 0.03 78 1011.5
20260507172704 58 330 8.0 8.0 0.00 0.09 0.03 79 1011.4
20260507172204 58 330 8.0 8.0 0.00 0.09 0.03 79 1011.4
20260507171705 58 330 8.0 8.0 0.00 0.09 0.03 79 1011.4
20260507171204 57 330 8.0 8.0 0.00 0.09 0.03 80 1011.4
20260507170704 57 330 8.0 8.0 0.00 0.09 0.03 80 1011.3
20260507170207 58 329 6.0 8.0 0.00 0.09 0.03 79 1011.4
20260507165204 59 290 5.0 5.0 0.00 0.10 0.03 78 1011.3
20260507164704 60 290 5.0 5.0 0.00 0.10 0.03 77 1011.3
20260507164205 60 290 5.0 5.0 0.00 0.10 0.03 76 1011.3
20260507163704 60 290 5.0 5.0 0.00 0.10 0.03 78 1011.1
20260507163204 60 290 5.0 5.0 0.00 0.10 0.03 78 1011.2
20260507162704 60 290 5.0 5.0 0.00 0.10 0.03 77 1011.2
20260507162204 60 290 5.0 5.0 0.00 0.10 0.03 79 1011.2
20260507161704 60 290 5.0 5.0 0.00 0.10 0.03 78 1011.1
20260507161204 60 290 5.0 5.0 0.00 0.10 0.03 78 1011.0
20260507160705 60 290 5.0 5.0 0.00 0.10 0.03 78 1011.1
20260507160205 59 290 6.0 7.0 0.00 0.10 0.03 80 1011.2
20260507155704 58 290 7.0 7.0 0.00 0.10 0.03 81 1011.2
20260507155204 59 290 7.0 7.0 0.00 0.10 0.03 80 1011.3
20260507154705 58 290 7.0 7.0 0.00 0.10 0.03 83 1011.2
20260507154205 58 290 7.0 7.0 0.00 0.10 0.03 80 1011.2
20260507153705 58 290 7.0 7.0 0.00 0.10 0.03 80 1011.3
20260507153204 58 290 7.0 7.0 0.00 0.10 0.03 81 1011.3
20260507152705 59 290 7.0 7.0 0.00 0.10 0.03 82 1011.2
20260507152205 59 290 7.0 7.0 0.00 0.10 0.03 81 1011.2
20260507151204 59 290 7.0 7.0 0.00 0.10 0.03 82 1011.2
20260507150705 59 290 7.0 7.0 0.00 0.10 0.03 83 1011.2
20260507150205 58 290 6.0 7.0 0.00 0.10 0.03 84 1011.1
20260507145704 59 290 5.0 5.0 0.00 0.10 0.03 82 1011.0
20260507145204 59 290 5.0 5.0 0.00 0.10 0.03 82 1011.2
20260507144704 60 290 5.0 5.0 0.00 0.10 0.03 81 1011.2
20260507144204 60 290 5.0 5.0 0.00 0.10 0.03 82 1011.3
20260507143704 60 290 5.0 5.0 0.00 0.10 0.03 82 1011.2
20260507142204 59 290 5.0 5.0 0.00 0.10 0.03 83 1011.0
20260507141705 59 290 5.0 5.0 0.00 0.10 0.03 86 1011.2
20260507141205 59 290 5.0 5.0 0.00 0.10 0.03 86 1011.1
20260507140704 58 290 5.0 5.0 0.00 0.10 0.03 88 1011.2
20260507140204 58 290 6.0 7.0 0.00 0.10 0.03 88 1011.3